User: anonymous   Login
Location: M.A.R.S.Observatory
(35.4031°N, 81.5481°W)
Time: 21:40:14
(UTC-04:00)
Language:

SL-8 R/B - Orbit

View from above orbital plane
View from above orbital plane
View from above satellite
View from above satellite

Ground track
Ground track

The orbit data is extracted from the following two-line orbital elements,

1 33066U 08031G   16126.23311389  .00000040  00000-0  39442-4 0  9996
2 33066  48.4434 218.4312 0008036 195.9799 185.7827 14.69421317422761
Epoch (UTC): 05 May 2016 05:35:41
Eccentricity: 0.0008036
inclination: 48.4434°
perigee height: 657 km
apogee height: 668 km
right ascension of ascending node: 218.4312°
argument of perigee: 195.9799°
revolutions per day: 14.69421317
mean anomaly at epoch: 185.7827°
orbit number at epoch: 42276

The dashed part of the orbit path shows where the satellite is in the earth's shadow,  

DLR